Regional Weather Roundup
Issued by NWS Huntsville, AL

Home | Current Version | Previous Version | Text Only | Print | Product List | Glossary On
Versions: 1 2 3 4 5 6 7 8 9 10 11 12 13 14 15 16 17 18 19 20 21 22 23 24 25 26 27
000
ASUS44 KHUN 281710
RWRHUN

WEATHER ROUNDUP FOR THE TENNESSEE VALLEY
NATIONAL WEATHER SERVICE HUNTSVILLE AL
1200 PM CDT SUN AUG 28 2016

ALZ001>004-281800-
NORTHWEST ALABAMA

CITY           SKY/WX    TMP DP  RH WIND       PRES   REMARKS
SHOALS AIRPORT SUNNY     90  69  50 SE6       30.16S HX  94
SHOALS TVA RES   N/A     90 N/A N/A MISG        N/A
$$

ALZ005>007-016-281800-
NORTH CENTRAL ALABAMA

CITY           SKY/WX    TMP DP  RH WIND       PRES   REMARKS
DECATUR AP     SUNNY     91  69  48 E6        30.16F HX  96
HUNTSVILLE AP  MOSUNNY   91  70  49 E9        30.16F HX  96
MERIDIANVILLE  SUNNY     88  61  40 S3        30.17F
REDSTONE ARSN  SUNNY     89  71  55 SE8       30.14F HX  94
VINEMONT AP    FAIR      88  69  52 E8        30.19F HX  92
$$

ALZ008>010-281800-
NORTHEAST ALABAMA

CITY           SKY/WX    TMP DP  RH WIND       PRES   REMARKS
ALBERTVILLE    MOSUNNY   88  75  66 E6        30.17F HX  97
FORT PAYNE     PTSUNNY   86  66  51 N3        30.17F
SCOTTSBORO AP  MOSUNNY   90  72  55 E5        30.16F HX  96
SCOTTSBORO HCN   N/A     88 N/A N/A MISG        N/A
VALLEY HEAD      N/A     84 N/A N/A MISG        N/A
$$

TNZ076-096-097-281800-
SOUTHEASTERN MIDDLE TENNESSEE

CITY           SKY/WX    TMP DP  RH WIND       PRES   REMARKS
TULLAHOMA      SUNNY     90  68  48 SE6       30.20F HX  93
WINCHESTER     SUNNY     88  72  58 SE6       30.19F HX  94
$$

...SURROUNDING SITES...

CITY           SKY/WX    TMP DP  RH WIND       PRES   REMARKS
ATLANTA        PTSUNNY   87  71  58 NE13G18   30.17F HX  93
ANNISTON       MOSUNNY   90  67  46 E14       30.14F HX  93
BIRMINGHAM     MOSUNNY   90  69  50 E12       30.15F HX  94
CHATTANOOGA    MOSUNNY   89  70  53 VRB3      30.18F HX  94
DALTON         SUNNY     88  70  55 SE6       30.17F HX  92
GADSDEN        MOSUNNY   88  73  61 NE8       30.15F HX  95
GOLDEN TRNGL     N/A     90  66  45 S5        30.11S HX  92
JACKSON TN     SUNNY     90  77  65 E8        30.13F HX 103
MEMPHIS        MOSUNNY   94  71  47 E12G18    30.11F HX 101
NASHVILLE      MOSUNNY   90  72  55 VRB3      30.17F HX  97
OXFORD MS      FAIR      90  66  45 E10       30.13F HX  92
ROME           PTSUNNY   86  71  60 E3        30.16F HX  91
SAVANNAH       SUNNY     90  72  55 SE7       30.13F HX  96
TUPELO         SUNNY     91  70  49 E5        30.11F HX  96
TUSCALOOSA     MOSUNNY   90  69  50 E9        30.10F HX  94
$$

...GULF COAST WEATHER...

CITY           SKY/WX    TMP DP  RH WIND       PRES   REMARKS
GULFPORT       CLOUDY    83  77  82 NE7       30.02F HX  92
PASCAGOULA     CLOUDY    87  79  76 E8        30.02F HX 101
MOBILE         CLOUDY    87  74  64 E7        30.04F HX  95
GULF SHORES    CLOUDY    85  79  82 E16G22    30.03R HX  97
PENSACOLA      PTSUNNY   86  77  74 E15       30.02S HX  97
DESTIN         PTSUNNY   91  79  67 VRB5      30.02F HX 107
PANAMA CITY    MOSUNNY   89  75  62 NE9         N/A  HX  99
APPALACHICOLA  MOSUNNY   89  81  77 SE13G18   30.02F HX 108
$$





USA.gov is the U.S. government's official web portal to all federal, state and local government web resources and services.